Regional Weather Roundup
Issued by NWS Little Rock, AR

Home | Current Version | Previous Version | Text Only | Print | Product List | Glossary Off
Versions: 1 2 3 4 5 6 7 8 9 10 11 12 13 14 15 16 17 18 19 20 21 22 23 24 25 26 27 28 29 30 31 32 33 34 35 36 37 38 39 40 41 42 43 44 45 46

000
ASUS44 KLZK 270605
RWRLZK

WEATHER ROUNDUP FOR ARKANSAS
NATIONAL WEATHER SERVICE LITTLE ROCK AR
1200 AM CST SAT DEC 27 2014

NOTE: "FAIR" INDICATES FEW OR NO CLOUDS BELOW 12,000 FEET WITH NO
SIGNIFICANT WEATHER AND/OR OBSTRUCTIONS TO VISIBILITY.

ARZ001-003-010-029-270700-
NORTHWEST ARKANSAS

CITY           SKY/WX    TMP DP  RH WIND       PRES   REMARKS
FAYETTEVILLE   CLOUDY    51  51 100 S8        30.04S
6HR MIN TEMP:  50; 6HR MAX TEMP:  51; 6HR PCP: TRACE;

FORT SMITH     CLOUDY    51  49  92 NE6       30.04F
6HR MIN TEMP:  49; 6HR MAX TEMP:  52; 6HR PCP: TRACE;

HARRISON       CLOUDY    50  50 100 VRB6      30.05F
6HR MIN TEMP:  48; 6HR MAX TEMP:  50; 6HR PCP:  0.02;

BENTONVILLE    CLOUDY    52  48  87 SW3       30.05R
6HR MIN TEMP:  52; 6HR MAX TEMP:  54; 6HR PCP:  0.02;

ROGERS         CLOUDY    51  51 100 S7        30.04S
6HR MIN TEMP:  50; 6HR MAX TEMP:  52; 6HR PCP:  0.03;

SILOAM SPGS    CLOUDY    52  46  82 S6        30.05S
6HR MIN TEMP:  52; 6HR MAX TEMP:  52; 6HR PCP:  0.01;

HIGHFILL       CLOUDY    52  51  97 S6        30.03S
6HR MIN TEMP:  51; 6HR MAX TEMP:  52; 6HR PCP:  0.03;

$$

ARZ004-005-016-270700-
NORTH CENTRAL ARKANSAS

CITY           SKY/WX    TMP DP  RH WIND       PRES   REMARKS
BATESVILLE     CLOUDY    48  46  93 SE5       30.11R
6HR MIN TEMP:  48; 6HR MAX TEMP:  54;

FLIPPIN        CLOUDY    48  45  87 CALM      30.07F
6HR MIN TEMP:  48; 6HR MAX TEMP:  52; 6HR PCP:  0.06;

MTN HOME       CLOUDY    48  48 100 SE8       30.06F FOG
6HR MIN TEMP:  47; 6HR MAX TEMP:  50; 6HR PCP:  0.10;

$$

ARZ040-041-270700-
WEST CENTRAL ARKANSAS

CITY           SKY/WX    TMP DP  RH WIND       PRES   REMARKS
MENA           CLOUDY    55  55 100 CALM      30.06S
MOUNT IDA      CLOUDY    53  51  93 N3        30.05S FOG
6HR MIN TEMP:  51; 6HR MAX TEMP:  53; 6HR PCP:  0.07;

$$

ARZ009-017-025-026-028-270700-
NORTHEAST ARKANSAS

CITY           SKY/WX    TMP DP  RH WIND       PRES   REMARKS
CORNING        LGT RAIN  48  48 100 S5        30.12S
JONESBORO      LGT RAIN  49  47  93 S8        30.11F
6HR MIN TEMP:  48; 6HR MAX TEMP:  51; 6HR PCP:  0.07;

NEWPORT        LGT RAIN  49  49 100 SE7       30.12S FOG
6HR MIN TEMP:  49; 6HR MAX TEMP:  51; 6HR PCP:  0.08;

WALNUT RIDGE   CLOUDY    48  45  87 S7        30.10F
6HR MIN TEMP:  48; 6HR MAX TEMP:  52; 6HR PCP:  0.02;

BLYTHEVILLE    CLOUDY    51  43  74 S12       30.13F
6HR MIN TEMP:  48; 6HR MAX TEMP:  51;

$$

ARZ022-023-033-042-044-270700-
CENTRAL ARKANSAS

CITY           SKY/WX    TMP DP  RH WIND       PRES   REMARKS
LITTLE ROCK    CLOUDY    53  50  89 CALM      30.11S FOG
6HR MIN TEMP:  52; 6HR MAX TEMP:  53; 6HR PCP:  0.16;

N LITTLE ROCK  CLOUDY    52  52 100 S5        30.11S
6HR MIN TEMP:  51; 6HR MAX TEMP:  52;

SEARCY         CLOUDY    52  51  97 S5        30.12S
6HR MIN TEMP:  51; 6HR MAX TEMP:  53; 6HR PCP:  0.09;

HOT SPRINGS    CLOUDY    54  53  97 CALM      30.09S FOG
6HR MIN TEMP:  52; 6HR MAX TEMP:  54; 6HR PCP:  0.18;

RUSSELLVILLE   CLOUDY    51  50  96 CALM      30.07F FOG
6HR MIN TEMP:  50; 6HR MAX TEMP:  52; 6HR PCP:  0.11;

CLINTON        FOG       48  48 100 CALM      30.11S VSB 3/4
$$

ARZ036-270700-
EAST ARKANSAS

CITY           SKY/WX    TMP DP  RH WIND       PRES   REMARKS
WEST MEMPHIS   LGT RAIN  51  48  89 S14       30.13S
6HR MIN TEMP:  48; 6HR MAX TEMP:  52; 6HR PCP: TRACE;

$$

ARZ050-053-066-070-073-270700-
SOUTHWEST ARKANSAS

CITY           SKY/WX    TMP DP  RH WIND       PRES   REMARKS
ARKADELPHIA    CLOUDY    55  55 100 CALM      30.09F FOG
6HR MIN TEMP:  52; 6HR MAX TEMP:  55; 6HR PCP:  0.08;

CAMDEN         CLOUDY    55  54  94 MISG      30.08F
TEXARKANA      LGT RAIN  57  57 100 S6        30.05F FOG
6HR MIN TEMP:  54; 6HR MAX TEMP:  57; 6HR PCP:  0.07;

EL DORADO      CLOUDY    56  54  93 SE7       30.08F
6HR MIN TEMP:  53; 6HR MAX TEMP:  56; 6HR PCP:  0.01;

DE QUEEN       FOG       55  54  96 E5        30.04F VSB 1/4
6HR MIN TEMP:  55; 6HR MAX TEMP:  56; 6HR PCP: TRACE;

$$

ARZ056-057-069-270700-
SOUTHEAST ARKANSAS

CITY           SKY/WX    TMP DP  RH WIND       PRES   REMARKS
PINE BLUFF     CLOUDY    54  52  93 S8        30.11S
6HR MIN TEMP:  52; 6HR MAX TEMP:  54; 6HR PCP:  0.08;

STUTTGART      CLOUDY    54  48  82 S9        30.11S
6HR MIN TEMP:  52; 6HR MAX TEMP:  54; 6HR PCP:  0.06;

MONTICELLO     CLOUDY    54  52  93 SE5       30.11F
6HR MIN TEMP:  52; 6HR MAX TEMP:  55; 6HR PCP: TRACE;


$$




USA.gov is the U.S. government's official web portal to all federal, state and local government web resources and services.